Location: Newark
(54.2500°N, 9.1833°E)
Time: 20:05:08
(UTC+00:00)

Vanguard 2 Rocket - Pass Details

Date: 18 December 2019
Orbit: 554 x 3326 km, 32.9° (Epoch: 28 January)

Event Time Altitude Azimuth Distance (km) Brightness Sun altitude
Rises 18:55:20 0° 260° (W) 6,659 12.3 -32.6°
Reaches altitude 10° 19:01:49 10° 247° (WSW) 5,153 11.4 -33.6°
Maximum altitude 19:10:33 20° 209° (SSW) 3,577 10.0 -34.8°
Enters shadow 19:15:17 14° 177° (S) 3,459 9.7 -35.5°
